When you browse on this site, cookies collect data to enhance your experience and personalize the content and advertising you see.
Visit our Privacy Policy to learn more. By continuing to use the site, you agree to this use of cookies and data.
  • In Hungary
  • List of Countries
  • For 7 days
  • Water Temperature
  • Weather Map
  • News
  • Weather Widgets
  • user-avatar
    Login

    Hourly Weather Elyria

    Today, 15 November, Friday

    Time Temperature Precipitation Wind Pressure Humidity
    00:00 -10°C° 0 mm 5 mps 748 mmHg 95%
    01:00 -10°C° 0 mm 5 mps 748 mmHg 96%
    02:00 -10°C° 0 mm 5 mps 748 mmHg 96%
    03:00 -10°C° 0 mm 5 mps 748 mmHg 96%
    04:00 -10°C° 0 mm 5 mps 748 mmHg 96%
    05:00 -11°C° 0 mm 5 mps 749 mmHg 97%
    06:00 -11°C° 0 mm 5 mps 749 mmHg 97%
    07:00 -11°C° 0 mm 5 mps 749 mmHg 97%
    08:00 -10°C° 0 mm 5 mps 749 mmHg 95%
    09:00 -7°C° 0 mm 5 mps 749 mmHg 93%
    10:00 -6°C° 0 mm 5 mps 749 mmHg 92%
    11:00 -5°C° 0 mm 5 mps 749 mmHg 92%
    12:00 -4°C° 0 mm 5 mps 749 mmHg 92%
    13:00 -2°C° 0 mm 5 mps 749 mmHg 92%
    14:00 -2°C° 0 mm 4 mps 749 mmHg 93%
    15:00 -2°C° 0 mm 4 mps 749 mmHg 94%
    16:00 -1°C° 0 mm 3 mps 749 mmHg 94%
    17:00 -1°C° 0 mm 3 mps 750 mmHg 95%
    18:00 -2°C° 0 mm 3 mps 750 mmHg 96%
    19:00 -2°C° 0 mm 3 mps 750 mmHg 97%
    20:00 -1°C° 0 mm 3 mps 751 mmHg 95%
    21:00 -2°C° 0 mm 4 mps 751 mmHg 93%
    22:00 -2°C° 0 mm 4 mps 751 mmHg 91%
    23:00 -2°C° 0 mm 4 mps 751 mmHg 91%

    Tomorrow, 16 November, Saturday

    Time Temperature Precipitation Wind Pressure Humidity
    00:00 -2°C° 0 mm 5 mps 751 mmHg 91%
    01:00 -2°C° 0 mm 5 mps 751 mmHg 91%
    02:00 -2°C° 0 mm 5 mps 751 mmHg 92%
    03:00 -4°C° 0 mm 5 mps 751 mmHg 93%
    04:00 -5°C° 0 mm 5 mps 751 mmHg 93%
    05:00 -5°C° 0 mm 5 mps 751 mmHg 93%
    06:00 -5°C° 0 mm 5 mps 752 mmHg 92%
    07:00 -4°C° 0 mm 4 mps 752 mmHg 92%
    08:00 -6°C° 0 mm 5 mps 752 mmHg 86%
    09:00 -6°C° 0 mm 5 mps 752 mmHg 81%
    10:00 -6°C° 0 mm 6 mps 752 mmHg 75%
    11:00 -6°C° 0 mm 5 mps 752 mmHg 74%
    12:00 -5°C° 0 mm 5 mps 751 mmHg 72%
    13:00 -4°C° 0 mm 5 mps 751 mmHg 71%
    14:00 -4°C° 0 mm 5 mps 750 mmHg 74%
    15:00 -3°C° 0 mm 4 mps 750 mmHg 77%
    16:00 -3°C° 0 mm 4 mps 749 mmHg 81%
    17:00 -4°C° 0 mm 4 mps 749 mmHg 83%
    18:00 -5°C° 0 mm 4 mps 749 mmHg 85%
    19:00 -7°C° 0 mm 4 mps 749 mmHg 88%
    20:00 -8°C° 0 mm 4 mps 749 mmHg 87%
    21:00 -8°C° 0 mm 4 mps 748 mmHg 86%
    22:00 -7°C° 0 mm 3 mps 748 mmHg 84%
    23:00 -8°C° 0 mm 4 mps 747 mmHg 83%

    Day after tomorrow, 17 November, Sunday

    Time Temperature Precipitation Wind Pressure Humidity
    00:00 -8°C° 0 mm 4 mps 747 mmHg 81%
    01:00 -8°C° 0 mm 4 mps 746 mmHg 80%
    02:00 -8°C° 0 mm 4 mps 746 mmHg 80%
    03:00 -8°C° 0 mm 4 mps 745 mmHg 80%
    04:00 -7°C° 0 mm 3 mps 745 mmHg 80%
    05:00 -7°C° 0 mm 3 mps 745 mmHg 80%
    06:00 -8°C° 0 mm 3 mps 745 mmHg 80%
    07:00 -7°C° 0 mm 2 mps 744 mmHg 80%
    08:00 -7°C° 0 mm 3 mps 744 mmHg 77%
    09:00 -5°C° 0 mm 3 mps 744 mmHg 75%
    10:00 -4°C° 0 mm 3 mps 743 mmHg 73%
    11:00 -2°C° 0 mm 3 mps 743 mmHg 72%
    12:00 +1°C° 0 mm 2 mps 742 mmHg 70%
    13:00 +2°C° 0 mm 2 mps 741 mmHg 69%
    14:00 +3°C° 0 mm 1 mps 741 mmHg 72%
    15:00 +3°C° 0 mm 1 mps 740 mmHg 74%
    16:00 +2°C° 0 mm 0 mps 740 mmHg 77%
    17:00 +2°C° 0 mm 1 mps 740 mmHg 78%
    18:00 +1°C° 0 mm 1 mps 739 mmHg 79%
    19:00 +1°C° 0 mm 1 mps 739 mmHg 80%
    20:00 +1°C° 0 mm 1 mps 739 mmHg 81%
    21:00 -1°C° 0 mm 2 mps 739 mmHg 82%
    22:00 -1°C° 0 mm 2 mps 739 mmHg 83%
    23:00 -1°C° 0 mm 2 mps 738 mmHg 82%

    18 November, Monday

    Time Temperature Precipitation Wind Pressure Humidity
    00:00 -1°C° 0 mm 3 mps 738 mmHg 82%
    01:00 -1°C° 0 mm 3 mps 737 mmHg 82%
    02:00 -1°C° 0 mm 3 mps 737 mmHg 83%
    03:00 0°C° 0 mm 3 mps 737 mmHg 84%
    04:00 0°C° 0 mm 3 mps 737 mmHg 85%
    05:00 -1°C° 0 mm 3 mps 736 mmHg 85%
    06:00 -1°C° 0 mm 3 mps 736 mmHg 84%
    07:00 -1°C° 0 mm 3 mps 736 mmHg 84%
    08:00 0°C° 0 mm 3 mps 736 mmHg 84%
    09:00 +1°C° 0 mm 3 mps 737 mmHg 85%
    10:00 +1°C° 0 mm 4 mps 737 mmHg 85%
    11:00 +1°C° 0 mm 4 mps 736 mmHg 86%
    12:00 +3°C° 0 mm 4 mps 736 mmHg 86%
    13:00 +3°C° 0 mm 4 mps 736 mmHg 87%
    14:00 +3°C° 0 mm 3 mps 736 mmHg 89%
    15:00 +2°C° 0 mm 3 mps 736 mmHg 91%
    16:00 +2°C° 0 mm 3 mps 736 mmHg 94%
    17:00 +1°C° 0 mm 3 mps 736 mmHg 94%
    18:00 +1°C° 0 mm 3 mps 736 mmHg 94%
    19:00 0°C° 0 mm 3 mps 736 mmHg 95%
    20:00 0°C° 0 mm 3 mps 736 mmHg 95%
    21:00 +1°C° 0 mm 3 mps 736 mmHg 95%
    22:00 +1°C° 0 mm 3 mps 736 mmHg 96%
    23:00 +1°C° 0.1 mm 3 mps 736 mmHg 96%

    19 November, Tuesday

    Time Temperature Precipitation Wind Pressure Humidity
    00:00 +1°C° 0.1 mm 3 mps 736 mmHg 97%
    01:00 +1°C° 0.1 mm 3 mps 736 mmHg 98%
    02:00 0°C° 0 mm 3 mps 736 mmHg 98%
    03:00 -1°C° 0 mm 4 mps 736 mmHg 98%
    04:00 -1°C° 0 mm 4 mps 736 mmHg 98%
    05:00 0°C° 0 mm 3 mps 736 mmHg 98%
    06:00 -1°C° 0 mm 3 mps 736 mmHg 98%
    07:00 -1°C° 0 mm 3 mps 736 mmHg 97%
    08:00 -1°C° 0 mm 3 mps 736 mmHg 97%
    09:00 0°C° 0 mm 3 mps 736 mmHg 96%
    10:00 +1°C° 0 mm 3 mps 736 mmHg 96%
    11:00 +1°C° 0 mm 3 mps 736 mmHg 96%
    12:00 +2°C° 0 mm 2 mps 736 mmHg 96%
    13:00 +2°C° 0 mm 2 mps 736 mmHg 96%
    14:00 +2°C° 0 mm 2 mps 736 mmHg 96%
    15:00 +2°C° 0 mm 2 mps 736 mmHg 96%
    16:00 +2°C° 0 mm 2 mps 736 mmHg 95%
    17:00 +2°C° 0.1 mm 2 mps 736 mmHg 96%
    18:00 +1°C° 0.1 mm 2 mps 737 mmHg 97%
    19:00 +1°C° 0.1 mm 2 mps 737 mmHg 98%
    20:00 +1°C° 0 mm 2 mps 737 mmHg 98%
    21:00 +1°C° 0 mm 2 mps 738 mmHg 97%
    22:00 -1°C° 0 mm 3 mps 738 mmHg 97%
    23:00 -1°C° 0.2 mm 3 mps 738 mmHg 97%

    20 November, Wednesday

    Time Temperature Precipitation Wind Pressure Humidity
    00:00 -1°C° 0.2 mm 3 mps 738 mmHg 97%
    01:00 -1°C° 0.2 mm 3 mps 738 mmHg 97%
    02:00 -2°C° 0.2 mm 4 mps 738 mmHg 97%
    03:00 -2°C° 0.2 mm 4 mps 739 mmHg 97%
    04:00 -2°C° 0.2 mm 4 mps 739 mmHg 97%
    05:00 -2°C° 0.1 mm 4 mps 739 mmHg 98%
    06:00 -3°C° 0.1 mm 4 mps 740 mmHg 98%
    07:00 -3°C° 0.1 mm 4 mps 740 mmHg 98%
    08:00 -2°C° 0.1 mm 4 mps 741 mmHg 97%
    09:00 -2°C° 0.1 mm 4 mps 741 mmHg 96%
    10:00 -1°C° 0.1 mm 4 mps 742 mmHg 96%
    11:00 -1°C° 0 mm 4 mps 742 mmHg 94%
    12:00 0°C° 0 mm 5 mps 742 mmHg 93%
    13:00 0°C° 0 mm 5 mps 742 mmHg 91%
    14:00 0°C° 0 mm 5 mps 743 mmHg 91%
    15:00 0°C° 0 mm 5 mps 743 mmHg 90%
    16:00 0°C° 0 mm 4 mps 743 mmHg 90%
    17:00 0°C° 0 mm 4 mps 744 mmHg 90%
    18:00 0°C° 0 mm 4 mps 745 mmHg 90%
    19:00 0°C° 0 mm 4 mps 745 mmHg 91%
    20:00 0°C° 0 mm 4 mps 745 mmHg 91%
    21:00 -1°C° 0 mm 4 mps 746 mmHg 90%
    22:00 -1°C° 0 mm 4 mps 746 mmHg 90%
    23:00 -1°C° 0 mm 4 mps 746 mmHg 90%
    Show more